This demonstration page uses our WeatherBlox Daily Observations layout. Learn more.

Left ArrowRight Arrow

36.19886, -115.1175

Hourly Observations for November 11, 2021

Temp ( °F °C ) Dew Point ( °F °C ) Humidity (%) Winds ( mph kmh ) Pressure ( in mb ) Visibility ( mi km ) Precip ( " mm )
12:53 am 00:53 Clear 67 19.4 35 1.7 31 31 NNW 9 15 30.21 1023 10 16 0.00 0.00
1:53 am 01:53 Clear 66 18.9 33 0.6 29 29 NW 13 20 30.21 1023 10 16 0.00 0.00
2:53 am 02:53 Clear 66 18.9 32 0 28 28 NNW 18 30 30.22 1023 10 16 0.00 0.00
3:53 am 03:53 Clear 65 18.3 32 0 29 29 N 12 19 30.24 1024 10 16 0.00 0.00
4:53 am 04:53 Clear 63 17.2 32 0 31 31 N 14 22 30.25 1024 10 16 0.00 0.00
5:53 am 05:53 Clear 62 16.7 31 -0.6 31 31 N 13 20 30.26 1025 10 16 0.00 0.00
6:53 am 06:53 Sunny 62 16.7 32 0 32 32 NNW 9 15 30.28 1026 10 16 0.00 0.00
7:53 am 07:53 Sunny 65 18.3 32 0 29 29 NNW 13 20 30.30 1026 10 16 0.00 0.00
8:53 am 08:53 Sunny 69 20.6 32 0 25 25 NNW 9 15 30.31 1027 10 16 0.00 0.00
9:53 am 09:53 Sunny 71 21.7 33 0.6 25 25 NE 6 9 30.29 1026 10 16 0.00 0.00
10:53 am 10:53 Sunny 73 22.8 33 0.6 23 23 ESE 7 11 30.27 1025 10 16 0.00 0.00
11:53 am 11:53 Sunny 73 22.8 33 0.6 23 23 Calm 30.23 1024 10 16 0.00 0.00
12:53 pm 12:53 Sunny 75 23.9 33 0.6 22 22 Calm 30.21 1023 10 16 0.00 0.00
1:53 pm 13:53 Sunny 77 25 33 0.6 20 20 E 6 9 30.19 1022 10 16 0.00 0.00
2:53 pm 14:53 Sunny 79 26.1 34 1.1 20 20 NW 15 24 30.17 1022 10 16 0.00 0.00
3:53 pm 15:53 Sunny 77 25 34 1.1 21 21 E 7 11 30.18 1022 10 16 0.00 0.00
4:53 pm 16:53 Clear 74 23.3 33 0.6 22 22 Calm 30.19 1022 10 16 0.00 0.00
5:53 pm 17:53 Clear 72 22.2 34 1.1 25 25 S 5 7 30.21 1023 10 16 0.00 0.00
6:53 pm 18:53 Clear 70 21.1 34 1.1 27 27 W 5 7 30.22 1023 10 16 0.00 0.00
7:53 pm 19:53 Clear 67 19.4 34 1.1 30 30 NW 3 6 30.24 1024 10 16 0.00 0.00
8:53 pm 20:53 Clear 67 19.4 34 1.1 30 30 N 8 13 30.24 1024 10 16 0.00 0.00
9:53 pm 21:53 Clear 65 18.3 34 1.1 32 32 NW 7 11 30.26 1025 10 16 0.00 0.00
10:53 pm 22:53 Clear 64 17.8 34 1.1 33 33 W 5 7 30.27 1025 10 16 0.00 0.00
11:53 pm 23:53 Clear 61 16.1 35 1.7 38 38 WNW 9 15 30.27 1025 10 16 0.00 0.00

Powered by AerisWeather